User: anonymous   Login
Location: Unspecified
(0.0000°N, 0.0000°E)
Time: 07:38:20
(UTC+00:00)
Language:

IRAS - Orbit

View from above orbital plane
View from above orbital plane
View from above satellite
View from above satellite

Ground track
Ground track

The orbit data is extracted from the following two-line orbital elements,

1 13777U 83004A   19171.13769933 -.00000300  00000-0 -17285-3 0  9991
2 13777  98.9519 356.4223 0019611 182.8869 284.6624 14.00426065529100
Epoch (UTC): 20 June 2019 03:18:17
Eccentricity: 0.0019611
inclination: 98.9519°
perigee height: 878 km
apogee height: 906 km
right ascension of ascending node: 356.4223°
argument of perigee: 182.8869°
revolutions per day: 14.00426065
mean anomaly at epoch: 284.6624°
orbit number at epoch: 52910

The dashed part of the orbit path shows where the satellite is in the earth's shadow,  

DLR